Regional Weather Roundup
Issued by NWS

Home | Current Version | Previous Version | Graphics & Text | Print | Product List | Glossary On
Versions: 1 2 3 4 5 6 7 8 9 10 11 12 13 14 15 16 17 18 19 20 21 22 23 24 25 26 27 28 29 30 31 32 33 34 35 36 37 38 39 40 41 42 43 44 45 46 47 48 49 50
000
ASUS43 KOAX 031610
RWRNE

WEATHER ROUNDUP FOR NEBRASKA
NATIONAL WEATHER SERVICE OMAHA NE
1100 AM CDT THU SEP 03 2015

NOTES: SATELLITE DATA IS BEING USED TO AUGMENT CLOUD COVER ABOVE
       12000 FEET.
       "FAIR" INDICATES FEW OR NO CLOUDS BELOW 12,000 FEET WITH NO
       SIGNIFICANT WEATHER AND/OR OBSTRUCTIONS TO VISIBILITY.

  * THESE STATIONS DO NOT REPORT WEATHER SUCH AS RAIN...SNOW OR FOG.

NEZ001>004-019>022-054>056-031700-
NEBRASKA PANHANDLE

CITY           SKY/WX    TMP DP  RH WIND       PRES   REMARKS
SCOTTSBLUFF    MOSUNNY   77  53  43 VRB3      29.92S
ALLIANCE       MOSUNNY   82  51  34 S3        29.91S
CHADRON        SUNNY     88  49  25 VRB6      29.84F
KIMBALL        MOSUNNY   80  48  33 NW5       29.98S
SIDNEY         SUNNY     87  47  24 N6        29.95F
$$

NEZ057>060-069>072-079>082-031700-
SOUTHWEST NEBRASKA

CITY           SKY/WX    TMP DP  RH WIND       PRES   REMARKS
NORTH PLATTE   MOSUNNY   77  62  59 SE5       29.84F
IMPERIAL       MOSUNNY   80  61  52 NE5       29.88R
LEXINGTON      SUNNY     82  62  50 S8        29.84S
MCCOOK         MOSUNNY   82  59  45 E3        29.83F
OGALLALA       PTSUNNY   80  63  55 CALM      29.87S
$$

NEZ005>010-023>029-035>040-094-031700-
NORTH CENTRAL NEBRASKA

CITY           SKY/WX    TMP DP  RH WIND       PRES   REMARKS
VALENTINE      SUNNY     92  57  30 S13       29.82F HX  90
AINSWORTH      SUNNY     89  64  44 SE8       29.84S HX  90
BROKEN BOW     SUNNY     80  63  55 VRB5      29.84S
O`NEILL        SUNNY     81  67  63 CALM      29.83S
ORD            SUNNY     81  62  52 SW7       29.82S
THEDFORD       SUNNY     85  64  48 SE5       29.86S
$$

NEZ041-046>049-061>064-073>077-083>087-031700-
SOUTH CENTRAL NEBRASKA

CITY           SKY/WX    TMP DP  RH WIND       PRES   REMARKS
GRAND ISLAND   SUNNY     83  62  49 SW13      29.85R
AURORA         SUNNY     82  64  54 S10       29.84S
HASTINGS       SUNNY     83  62  49 S15       29.84S
HEBRON         SUNNY     84  61  45 S14       29.86S
HOLDREGE       SUNNY     81  59  46 S12       29.84S
KEARNEY *      SUNNY     82  61  47 S10       29.84S
YORK           SUNNY     82  66  57 S12G17    29.85S
$$

NEZ011>018-030>034-042>045-031700-
NORTHEAST NEBRASKA

CITY           SKY/WX    TMP DP  RH WIND       PRES   REMARKS
NORFOLK        SUNNY     81  67  62 S9        29.84R
ALBION         SUNNY     79  65  63 S3        29.84S
BLAIR          SUNNY     80  67  64 S13       29.88R
COLUMBUS *     SUNNY     81  64  57 S8        29.84F
FREMONT        SUNNY     82  67  60 S9        29.86S
TEKAMAH        SUNNY     83  70  64 S12       29.86S
WAYNE          SUNNY     79  70  72 S7        29.85S
$$

NEZ050>053-065>068-078-088>093-031700-
SOUTHEAST NEBRASKA

CITY           SKY/WX    TMP DP  RH WIND       PRES   REMARKS
LINCOLN        SUNNY     85  66  53 S13       29.85F
OMAHA EPPLEY   MOSUNNY   82  69  64 S13       29.87S
BEATRICE       SUNNY     84  66  54 S15G22    29.87S
FALLS CITY     SUNNY     86  68  54 S13       29.90S
NEBRASKA CITY  SUNNY     84  62  47 S12       29.88F
PLATTSMOUTH    SUNNY     81  67  62 S10       29.89R
$$

NEZ044-045-051>053-067-031700-
OMAHA AREA

CITY           SKY/WX    TMP DP  RH WIND       PRES   REMARKS
OMAHA EPPLEY   MOSUNNY   82  69  64 S13       29.87S
BLAIR          SUNNY     80  67  64 S13       29.88R
FREMONT        SUNNY     82  67  60 S9        29.86S
MILLARD        SUNNY     82  69  65 SE8       29.87S
OFFUTT AFB     SUNNY     83  69  62 S12       29.87S
PLATTSMOUTH    SUNNY     81  67  62 S10       29.89R
WAHOO          FAIR      83  68  60 S10       29.86S
$$




USA.gov is the U.S. government's official web portal to all federal, state and local government web resources and services.